Location: �terpigny
(49.8910°N, 2.9249°E)
Time: 20:18:50
(UTC+00:00)

ZACube-1 - Visible Passes

Search period start: 26 June 2022 00:00
Search period end: 06 July 2022 00:00
Orbit: 581 x 662 km, 97.6° (Epoch: 26 June)

Date Brightness Start Highest point End Pass type
(mag) Time Alt. Az. Time Alt. Az. Time Alt. Az.
26 Jun ? 02:21:42 10° ENE 02:23:11 11° E 02:24:40 10° ESE visible
27 Jun ? 02:38:20 10° NE 02:41:14 17° E 02:44:10 10° SE visible
28 Jun ? 02:55:35 10° NE 02:59:14 25° E 03:02:55 10° SSE visible
01 Jul ? 02:15:46 10° E 02:16:02 10° E 02:16:17 10° E visible
02 Jul ? 02:31:28 10° NE 02:34:06 15° E 02:36:43 10° SE visible
03 Jul ? 02:48:36 10° NE 02:52:05 22° E 02:55:36 10° SE visible
